GW2440 Weather Reports


Display with metric or nautical units.
time (UTC)temp
F
wind
direction
speed
MPH
gust
MPH
rain 1hr
in
rain 24hr
in
rain mn
in
humidity
%
barometer
mb
20260510212604 85 211 0.0 0.0 0.00 0.02 0.02 70 1016.9
20260510212102 85 268 1.0 1.0 0.00 0.02 0.02 70 1016.9
20260510211559 85 273 3.0 3.0 0.00 0.02 0.02 70 1016.9
20260510211058 85 202 2.0 2.0 0.00 0.02 0.02 71 1016.9
20260510210555 85 202 5.0 6.0 0.00 0.02 0.02 70 1017.2
20260510210050 85 292 4.0 7.0 0.00 0.02 0.02 72 1016.9
20260510205544 85 210 1.0 1.0 0.00 0.02 0.02 71 1016.9
20260510205040 85 195 1.0 2.0 0.00 0.02 0.02 70 1016.9
20260510204536 85 280 3.0 5.0 0.00 0.02 0.02 67 1016.9
20260510204033 84 266 1.0 1.0 0.00 0.02 0.02 70 1016.9
20260510203530 84 304 2.0 3.0 0.00 0.02 0.02 69 1017.2
20260510203027 84 269 2.0 3.0 0.00 0.02 0.02 70 1017.2
20260510202526 83 218 2.0 2.0 0.00 0.02 0.02 72 1017.2
20260510202023 83 270 4.0 6.0 0.00 0.02 0.02 72 1016.9
20260510201520 83 207 3.0 3.0 0.00 0.02 0.02 76 1017.2
20260510201016 83 307 5.0 6.0 0.00 0.02 0.02 78 1016.9
20260510200512 83 164 0.0 0.0 0.00 0.02 0.02 84 1016.9
20260510200010 82 293 5.0 5.0 0.00 0.02 0.02 84 1016.5
20260510195508 82 234 2.0 2.0 0.00 0.02 0.02 86 1016.5
20260510195003 82 226 3.0 3.0 0.00 0.02 0.02 88 1016.5
20260510194459 81 257 3.0 3.0 0.00 0.02 0.02 88 1016.5
20260510193955 80 344 2.0 2.0 0.12 0.02 0.02 88 1016.5
20260510193450 82 214 4.0 6.0 0.12 0.02 0.02 83 1016.5
20260510192945 89 218 11.0 14.0 0.05 0.01 0.01 71 1016.5
20260510192440 91 227 3.0 3.0 0.00 0.00 0.00 56 1016.5
20260510191936 91 248 2.0 2.0 0.00 0.00 0.00 55 1016.9
20260510191432 91 235 5.0 7.0 0.00 0.00 0.00 56 1016.9
20260510190930 92 219 1.0 2.0 0.00 0.00 0.00 55 1016.5
20260510190427 91 248 3.0 3.0 0.00 0.00 0.00 56 1016.5
20260510185924 91 221 4.0 6.0 0.00 0.00 0.00 56 1016.5
20260510185422 92 238 7.0 9.0 0.00 0.00 0.00 55 1016.9
20260510184918 92 212 3.0 3.0 0.00 0.00 0.00 55 1016.9
20260510184416 91 207 3.0 3.0 0.00 0.00 0.00 56 1016.9
20260510183915 91 182 5.0 7.0 0.00 0.00 0.00 57 1016.9
20260510183412 90 249 7.0 8.0 0.00 0.00 0.00 57 1016.9
20260510182907 90 224 3.0 3.0 0.00 0.00 0.00 58 1016.9
20260510182404 91 221 2.0 2.0 0.00 0.00 0.00 56 1017.2
20260510181859 90 227 0.0 1.0 0.00 0.00 0.00 56 1017.2
20260510181357 90 191 1.0 2.0 0.00 0.00 0.00 57 1016.9
20260510180853 91 166 4.0 6.0 0.00 0.00 0.00 58 1017.2
20260510180350 91 212 3.0 5.0 0.00 0.00 0.00 57 1017.2
20260510175847 91 149 3.0 3.0 0.00 0.00 0.00 58 1017.5
20260510175343 90 180 2.0 2.0 0.00 0.00 0.00 59 1017.5
20260510174839 90 243 4.0 5.0 0.00 0.00 0.00 59 1017.9
20260510174337 90 238 5.0 6.0 0.00 0.00 0.00 58 1017.5
20260510173833 91 150 3.0 5.0 0.00 0.00 0.00 59 1017.9
20260510173329 91 169 3.0 3.0 0.00 0.00 0.00 58 1017.9
20260510172825 90 212 2.0 2.0 0.00 0.00 0.00 60 1017.9
20260510172321 89 212 3.0 3.0 0.00 0.00 0.00 60 1017.9
20260510171818 90 168 1.0 2.0 0.00 0.00 0.00 58 1017.9
20260510171315 90 251 8.0 9.0 0.00 0.00 0.00 60 1017.9
20260510170812 91 209 4.0 6.0 0.00 0.00 0.00 57 1017.9
20260510170308 89 199 2.0 3.0 0.00 0.00 0.00 60 1018.2
20260510165803 89 187 3.0 5.0 0.00 0.00 0.00 60 1018.2
20260510165300 89 263 3.0 5.0 0.00 0.00 0.00 61 1018.2
20260510164758 91 220 3.0 5.0 0.00 0.00 0.00 60 1018.2
20260510164255 89 236 9.0 10.0 0.00 0.00 0.00 61 1018.6
20260510163755 90 217 7.0 9.0 0.00 0.00 0.00 60 1018.6
20260510163251 90 58 0.0 1.0 0.00 0.00 0.00 62 1018.2
20260510162750 89 208 3.0 3.0 0.00 0.00 0.00 63 1018.6
20260510162248 87 242 3.0 5.0 0.00 0.00 0.00 65 1018.6
20260510161744 88 183 4.0 7.0 0.00 0.00 0.00 65 1018.6
20260510161240 88 217 4.0 5.0 0.00 0.00 0.00 66 1018.6
20260510160737 88 224 3.0 3.0 0.00 0.00 0.00 65 1018.9
20260510160233 89 193 2.0 3.0 0.00 0.00 0.00 66 1018.6
20260510155729 88 165 3.0 3.0 0.00 0.00 0.00 68 1018.9
20260510155225 89 172 3.0 3.0 0.00 0.00 0.00 66 1018.6
20260510154721 88 197 3.0 3.0 0.00 0.00 0.00 68 1018.9
20260510154217 87 173 0.0 0.0 0.00 0.00 0.00 69 1018.6
20260510153712 88 211 3.0 3.0 0.00 0.00 0.00 68 1018.6
20260510153208 87 213 4.0 6.0 0.00 0.00 0.00 69 1018.6
20260510152705 87 232 2.0 2.0 0.00 0.00 0.00 70 1018.9
20260510152201 86 212 1.0 1.0 0.00 0.00 0.00 71 1018.9
20260510151658 86 224 4.0 5.0 0.00 0.00 0.00 71 1018.6
20260510151156 86 216 2.0 2.0 0.00 0.00 0.00 71 1018.6
20260510150652 86 252 5.0 7.0 0.00 0.00 0.00 72 1018.6
20260510150147 85 189 4.0 7.0 0.00 0.00 0.00 72 1018.6
20260510145644 85 220 4.0 5.0 0.00 0.00 0.00 73 1018.6
20260510145140 85 228 6.0 6.0 0.00 0.00 0.00 74 1018.6
20260510144636 85 260 3.0 5.0 0.00 0.00 0.00 74 1018.6
20260510144133 84 191 3.0 5.0 0.00 0.00 0.00 74 1018.6
20260510143628 84 161 1.0 2.0 0.00 0.00 0.00 75 1018.6
20260510143125 84 226 5.0 6.0 0.00 0.00 0.00 76 1018.6
20260510142621 84 240 6.0 7.0 0.00 0.00 0.00 76 1018.6
20260510142118 83 236 5.0 6.0 0.00 0.00 0.00 78 1018.6
20260510141615 83 211 2.0 2.0 0.00 0.00 0.00 79 1018.6
20260510141113 84 212 3.0 3.0 0.00 0.00 0.00 77 1018.6
20260510140608 83 174 2.0 2.0 0.00 0.00 0.00 78 1018.6
20260510135559 83 199 2.0 2.0 0.00 0.00 0.00 81 1018.6
20260510135055 82 201 2.0 2.0 0.00 0.00 0.00 81 1017.9
20260510134552 82 215 3.0 3.0 0.00 0.00 0.00 83 1018.2
20260510134049 82 244 3.0 3.0 0.00 0.00 0.00 82 1018.2
20260510133545 82 85 1.0 2.0 0.00 0.00 0.00 82 1017.9
20260510133041 81 185 0.0 1.0 0.00 0.00 0.00 84 1017.9
20260510132538 81 196 2.0 3.0 0.00 0.00 0.00 84 1017.9
20260510132035 81 171 2.0 2.0 0.00 0.00 0.00 85 1017.9
20260510131532 81 230 3.0 3.0 0.00 0.00 0.00 86 1017.9
20260510131029 80 183 4.0 5.0 0.00 0.00 0.00 86 1017.9
20260510130525 80 180 2.0 2.0 0.00 0.00 0.00 87 1017.5
20260510130023 80 183 1.0 1.0 0.00 0.00 0.00 88 1017.5
20260510125519 79 183 2.0 2.0 0.00 0.00 0.00 88 1017.9
20260510125016 80 203 1.0 2.0 0.00 0.00 0.00 88 1017.9
20260510124513 79 185 2.0 2.0 0.00 0.00 0.00 89 1017.5
20260510124010 79 199 3.0 3.0 0.00 0.00 0.00 88 1017.5
20260510123505 79 201 1.0 2.0 0.00 0.00 0.00 89 1017.9
20260510123001 79 190 1.0 1.0 0.00 0.00 0.00 90 1017.5
20260510122456 78 181 4.0 5.0 0.00 0.00 0.00 90 1017.2
20260510121953 78 210 1.0 2.0 0.00 0.00 0.00 92 1017.5
20260510121450 77 163 1.0 1.0 0.00 0.00 0.00 93 1017.5
20260510120947 77 183 0.0 0.0 0.00 0.00 0.00 95 1017.2
20260510120445 76 180 1.0 1.0 0.00 0.00 0.00 95 1017.2
20260510115940 76 185 3.0 3.0 0.00 0.00 0.00 96 1017.2
20260510115438 76 178 3.0 5.0 0.00 0.00 0.00 97 1016.9
20260510114933 75 217 2.0 2.0 0.00 0.00 0.00 97 1016.9
20260510114430 75 199 3.0 5.0 0.00 0.00 0.00 98 1017.2
20260510113926 75 206 2.0 2.0 0.00 0.00 0.00 98 1016.9
20260510113422 75 204 2.0 2.0 0.00 0.00 0.00 99 1016.9
20260510112920 75 194 2.0 2.0 0.00 0.00 0.00 99 1016.9
20260510112417 74 200 2.0 2.0 0.00 0.00 0.00 99 1016.5
20260510111912 74 193 3.0 3.0 0.00 0.00 0.00 99 1016.5
20260510111409 74 178 1.0 1.0 0.00 0.00 0.00 99 1016.5
20260510110904 74 153 2.0 3.0 0.00 0.00 0.00 99 1016.5
20260510110401 74 186 2.0 2.0 0.00 0.00 0.00 99 1016.5
20260510105857 74 195 1.0 1.0 0.00 0.00 0.00 99 1016.2
20260510105357 74 187 1.0 1.0 0.00 0.00 0.00 99 1016.5
20260510104853 74 171 1.0 1.0 0.00 0.00 0.00 99 1016.2
20260510104350 74 195 2.0 2.0 0.00 0.00 0.00 99 1016.2
20260510103846 74 204 0.0 0.0 0.00 0.00 0.00 99 1015.8
20260510103344 74 204 2.0 2.0 0.00 0.00 0.00 99 1015.8
20260510102839 73 199 0.0 0.0 0.00 0.00 0.00 99 1015.8
20260510102335 74 188 0.0 0.0 0.00 0.00 0.00 99 1015.5
20260510101832 74 175 0.0 0.0 0.00 0.00 0.00 99 1015.5
20260510101331 74 193 1.0 1.0 0.00 0.00 0.00 99 1015.5
20260510100826 74 200 1.0 2.0 0.00 0.00 0.00 99 1015.2
20260510100324 73 191 0.0 0.0 0.00 0.00 0.00 99 1015.5
20260510095820 74 170 0.0 0.0 0.00 0.00 0.00 99 1015.5
20260510095315 73 191 2.0 3.0 0.00 0.00 0.00 99 1015.5
20260510094809 73 182 0.0 1.0 0.00 0.00 0.00 99 1015.5
20260510094304 73 185 0.0 0.0 0.00 0.00 0.00 99 1015.5
20260510093801 73 182 1.0 1.0 0.00 0.00 0.00 99 1015.5
20260510093257 73 175 0.0 0.0 0.00 0.00 0.00 99 1015.5
20260510092753 73 186 0.0 0.0 0.00 0.00 0.00 99 1015.5
20260510092249 73 177 0.0 0.0 0.00 0.00 0.00 99 1015.5
20260510091745 73 243 0.0 0.0 0.00 0.00 0.00 99 1015.5
20260510091243 73 185 0.0 1.0 0.00 0.00 0.00 99 1015.2
20260510090739 73 186 1.0 1.0 0.00 0.00 0.00 99 1015.2
20260510090236 73 189 0.0 1.0 0.00 0.00 0.00 99 1015.2
20260510085731 73 180 1.0 1.0 0.00 0.00 0.00 99 1015.2
20260510085226 73 174 1.0 1.0 0.00 0.00 0.00 99 1015.5
20260510084722 73 176 0.0 0.0 0.00 0.00 0.00 99 1015.2
20260510084219 73 174 0.0 0.0 0.00 0.00 0.00 99 1015.2
20260510083716 73 179 0.0 0.0 0.00 0.00 0.00 99 1015.2
20260510083213 73 211 0.0 0.0 0.00 0.00 0.00 99 1015.5
20260510082708 73 211 0.0 0.0 0.00 0.00 0.00 99 1015.2
20260510082205 73 211 0.0 0.0 0.00 0.00 0.00 99 1015.5
20260510081659 73 211 0.0 0.0 0.00 0.00 0.00 99 1015.5
20260510081155 73 211 0.0 0.0 0.00 0.00 0.00 99 1015.2
20260510080654 73 211 0.0 0.0 0.00 0.00 0.00 99 1015.2
20260510080152 73 211 0.0 0.0 0.00 0.00 0.00 99 1015.2
20260510075648 73 211 0.0 0.0 0.00 0.00 0.00 99 1015.5
20260510075146 73 211 0.0 0.0 0.00 0.00 0.00 99 1015.2
20260510074643 73 212 0.0 0.0 0.00 0.00 0.00 99 1015.2
20260510074138 73 212 0.0 0.0 0.00 0.00 0.00 99 1015.2
20260510073636 73 211 0.0 0.0 0.00 0.00 0.00 99 1015.5
20260510073132 73 209 0.0 0.0 0.00 0.00 0.00 99 1015.5
20260510072628 73 199 0.0 0.0 0.00 0.00 0.00 99 1015.5
20260510072124 73 199 0.0 0.0 0.00 0.00 0.00 99 1015.2
20260510071620 73 199 0.0 0.0 0.00 0.00 0.00 99 1015.5
20260510071118 73 202 0.0 0.0 0.00 0.00 0.00 99 1015.5
20260510070615 73 237 0.0 0.0 0.00 0.00 0.00 99 1015.8
20260510070112 73 237 0.0 0.0 0.00 0.00 0.00 99 1015.8
20260510065603 73 235 0.0 0.0 0.00 0.00 0.00 99 1015.8
20260510065059 73 227 0.0 0.0 0.00 0.00 0.00 99 1015.8
20260510064555 73 259 0.0 0.0 0.00 0.00 0.00 99 1015.5
20260510064052 73 217 0.0 0.0 0.00 0.00 0.00 99 1015.8
20260510063549 73 158 0.0 0.0 0.00 0.00 0.00 99 1015.8
20260510063046 73 156 0.0 0.0 0.00 0.00 0.00 99 1015.8
20260510062542 73 156 0.0 0.0 0.00 0.00 0.00 99 1016.2
20260510062037 73 156 0.0 0.0 0.00 0.00 0.00 99 1015.8
20260510061534 73 156 0.0 0.0 0.00 0.00 0.00 99 1016.2
20260510061031 73 156 0.0 0.0 0.00 0.00 0.00 99 1016.2
20260510060527 73 157 0.0 0.0 0.00 0.00 0.00 99 1015.8
20260510060023 73 127 0.0 0.0 0.00 0.00 0.00 99 1016.2
20260510055519 73 127 0.0 0.0 0.00 0.00 0.00 99 1016.2
20260510055018 73 127 0.0 0.0 0.00 0.00 0.00 99 1016.2
20260510054513 73 126 0.0 0.0 0.00 0.00 0.00 99 1016.2
20260510054009 73 126 0.0 0.0 0.00 0.00 0.00 99 1016.2
20260510053503 73 127 0.0 0.0 0.00 0.00 0.00 99 1016.2
20260510053001 74 139 0.0 0.0 0.00 0.00 0.00 99 1016.2
20260510052456 74 334 0.0 0.0 0.00 0.00 0.00 99 1016.2
20260510051953 74 208 0.0 0.0 0.00 0.00 0.00 99 1016.5
20260510051448 74 208 0.0 0.0 0.00 0.00 0.00 99 1016.5
20260510050945 74 131 0.0 0.0 0.00 0.00 0.00 99 1016.9
20260510050442 74 133 0.0 0.0 0.00 0.00 0.00 99 1016.9
20260510045939 74 220 0.0 0.0 0.00 0.00 0.00 99 1016.9
20260510045436 74 215 0.0 0.0 0.00 0.00 0.00 99 1016.9
20260510044933 74 215 0.0 0.0 0.00 0.00 0.00 98 1016.9
20260510044430 74 197 0.0 0.0 0.00 0.00 0.00 99 1016.9
20260510043927 74 191 0.0 0.0 0.00 0.00 0.00 98 1016.9
20260510043422 74 180 0.0 0.0 0.00 0.00 0.00 98 1016.9
20260510042921 74 105 0.0 0.0 0.00 0.00 0.00 98 1016.9
20260510042416 74 93 0.0 1.0 0.00 0.00 0.00 98 1016.9
20260510041912 74 128 0.0 0.0 0.00 0.00 0.00 98 1016.9
20260510041410 74 109 0.0 0.0 0.00 0.00 0.00 98 1016.9
20260510040907 75 108 0.0 0.0 0.00 0.00 0.00 97 1016.9
20260510040404 75 92 0.0 1.0 0.00 0.00 0.00 97 1016.9
20260510035859 75 119 0.0 0.0 0.00 0.00 0.00 97 1016.9
20260510035356 75 83 1.0 1.0 0.00 0.00 0.00 96 1016.9
20260510034851 75 86 1.0 1.0 0.00 0.00 0.00 96 1016.9
20260510034349 75 106 0.0 1.0 0.00 0.00 0.00 95 1016.9
20260510033845 75 117 0.0 0.0 0.00 0.00 0.00 95 1016.5
20260510033342 75 110 0.0 0.0 0.00 0.00 0.00 95 1016.9
20260510032839 75 138 0.0 0.0 0.00 0.00 0.00 95 1016.9
20260510032336 75 132 0.0 0.0 0.00 0.00 0.00 94 1016.9
20260510031831 75 101 0.0 0.0 0.00 0.00 0.00 94 1016.9
20260510031326 75 36 0.0 0.0 0.00 0.00 0.00 94 1016.9
20260510030821 75 11 0.0 0.0 0.00 0.00 0.00 93 1016.9
20260510030318 75 85 0.0 0.0 0.00 0.00 0.00 93 1016.5
20260510025815 75 90 0.0 0.0 0.00 0.00 0.00 93 1016.5
20260510025312 75 72 1.0 1.0 0.00 0.00 0.00 93 1016.9
20260510024809 76 54 0.0 0.0 0.00 0.00 0.00 93 1016.9
20260510024306 76 60 1.0 1.0 0.00 0.00 0.00 93 1016.9
20260510023802 76 78 1.0 1.0 0.00 0.00 0.00 93 1016.9
20260510023259 76 84 0.0 1.0 0.00 0.00 0.00 93 1016.9
20260510022756 76 79 1.0 1.0 0.00 0.00 0.00 92 1016.5
20260510022255 76 31 1.0 1.0 0.00 0.00 0.00 92 1016.9
20260510021754 76 40 2.0 2.0 0.00 0.00 0.00 91 1016.5
20260510021252 76 60 4.0 6.0 0.00 0.00 0.00 91 1016.5
20260510020743 77 89 2.0 3.0 0.00 0.00 0.00 91 1016.5
20260510020243 77 57 2.0 2.0 0.00 0.00 0.00 90 1016.9
20260510015739 77 62 2.0 3.0 0.00 0.00 0.00 90 1016.5
20260510015236 77 24 2.0 2.0 0.00 0.00 0.00 90 1016.5
20260510014730 77 55 2.0 2.0 0.00 0.00 0.00 90 1016.5
20260510014228 77 313 1.0 1.0 0.00 0.00 0.00 90 1016.5
20260510013724 77 37 2.0 2.0 0.00 0.00 0.00 90 1016.5
20260510013220 77 91 0.0 0.0 0.00 0.00 0.00 90 1016.5
20260510012719 77 23 2.0 2.0 0.00 0.00 0.00 90 1016.2
20260510012215 77 348 2.0 2.0 0.00 0.00 0.00 90 1016.5
20260510011709 77 108 1.0 1.0 0.00 0.00 0.00 90 1016.2
20260510011205 77 72 3.0 3.0 0.00 0.00 0.00 90 1016.2
20260510010702 77 338 3.0 3.0 0.00 0.00 0.00 90 1015.8
20260510010159 77 44 2.0 2.0 0.00 0.00 0.00 90 1015.8
20260510005655 77 29 5.0 6.0 0.00 0.00 0.00 91 1016.2
20260510005152 77 59 4.0 6.0 0.00 0.00 0.00 91 1015.5
20260510004650 77 48 2.0 2.0 0.00 0.00 0.00 92 1016.2
20260510004148 77 69 2.0 2.0 0.00 0.00 0.00 92 1015.5
20260510003645 77 3 4.0 6.0 0.00 0.00 0.00 92 1015.8
20260510003140 77 35 3.0 3.0 0.00 0.00 0.00 93 1015.5
20260510002640 77 50 4.0 5.0 0.00 0.00 0.00 93 1015.2
20260510002138 77 64 4.0 6.0 0.00 0.00 0.00 93 1015.5
20260510001634 77 69 3.0 5.0 0.00 0.00 0.00 93 1015.5
20260510001133 77 55 2.0 2.0 0.00 0.00 0.00 93 1015.5
20260510000633 77 48 5.0 6.0 0.00 0.00 0.00 93 1015.2
20260510000131 77 31 3.0 6.0 0.00 0.00 0.00 93 1015.5
20260509235627 78 44 2.0 2.0 0.00 0.00 0.00 92 1015.5
20260509235124 78 40 7.0 8.0 0.00 0.00 0.00 92 1015.2
20260509234620 78 25 4.0 5.0 0.00 0.00 0.00 92 1015.2
20260509234118 78 53 5.0 8.0 0.00 0.00 0.00 92 1015.2
20260509233615 78 94 3.0 3.0 0.00 0.00 0.00 92 1014.8
20260509233112 78 16 7.0 8.0 0.00 0.00 0.00 91 1015.2
20260509232608 78 35 3.0 5.0 0.00 0.00 0.00 89 1014.8
20260509232106 79 67 2.0 2.0 0.00 0.00 0.00 87 1014.8
20260509231602 78 37 5.0 7.0 0.00 0.00 0.00 86 1014.8
20260509231100 79 43 7.0 9.0 0.00 0.00 0.00 85 1014.5
20260509230556 79 27 4.0 6.0 0.00 0.00 0.00 84 1014.5
20260509230054 79 347 8.0 10.0 0.00 0.00 0.00 84 1014.5
20260509225549 79 84 6.0 9.0 0.00 0.00 0.00 83 1014.2
20260509225044 80 27 7.0 8.0 0.00 0.00 0.00 82 1014.2
20260509224540 80 19 4.0 6.0 0.00 0.00 0.00 82 1014.2
20260509224037 81 30 5.0 7.0 0.00 0.00 0.00 81 1014.2
20260509223534 81 359 6.0 9.0 0.00 0.00 0.00 80 1013.8
20260509223032 81 18 12.0 15.0 0.00 0.00 0.00 79 1014.2
20260509222528 82 17 12.0 13.0 0.00 0.00 0.00 78 1013.8
20260509222024 82 40 7.0 9.0 0.00 0.00 0.00 77 1013.8
20260509221520 82 4 4.0 6.0 0.00 0.00 0.00 77 1013.8
20260509221016 83 347 8.0 9.0 0.00 0.00 0.00 76 1013.8
20260509220512 83 36 3.0 5.0 0.00 0.00 0.00 75 1013.5
20260509220009 83 9 6.0 7.0 0.00 0.00 0.00 74 1013.5
20260509215504 83 339 8.0 11.0 0.00 0.00 0.00 74 1013.5
20260509215001 83 32 4.0 6.0 0.00 0.00 0.00 74 1013.5
20260509214458 84 334 5.0 8.0 0.00 0.00 0.00 72 1013.5
20260509213955 84 339 5.0 7.0 0.00 0.00 0.00 72 1013.5
20260509213451 84 19 3.0 5.0 0.00 0.00 0.00 72 1013.1
20260509212948 85 291 6.0 8.0 0.00 0.00 0.00 70 1013.5